Location: Arrien
(42.8963°N, 1.0429°E)
Time: 20:39:28
(UTC+00:00)

SL-16 R/B - Pass Details

Date: 24 March 2026
Orbit: 841 x 845 km, 71.0° (Epoch: 11 April)

Event Time Altitude Azimuth Distance (km) Brightness Sun altitude
Exits shadow 23:27:35 14° 3° (N) 2,230 4.9 -44.7°
Drops below altitude 10° 23:28:21 10° 8° (N) 2,473 5.2 -44.7°
Sets 23:31:05 0° 18° (NNE) 3,412 6.0 -44.8°
